Flag for Germany Weather past 2 weeks in Helmstedt, Lower Saxony, Germany

Now
61 °F

Scattered clouds.


Feels Like: 61 °F
Forecast: 49 / 67 °F
Wind: 10 mph from West

Location: Braunschweig

Current Time: Aug 21, 2014 at 12:37:57 PM

Latest Report: Aug 21, 2014 at 12:20 PM


Visibility: N/A

Pressure: 30.01 "Hg

Humidity: 59%

Dew point: 46 °F

Location of HelmstedtLocation

Historic Weather in Helmstedt — Graph

°F

Helmstedt temperature yesterday

Maximum temperature yesterday: 64 °F (at 2:20 PM)
Minimum temperature yesterday: 48 °F (at 6:50 AM)
Average temperature yesterday: 58 °F

Past Weeks' High & Low Weather Summary

 TemperatureHumidityPressure
High81 °F (Aug 8, 5:20 PM)100% (Aug 8, 6:50 AM)30.07 "Hg (Aug 8, 6:50 AM)
Low48 °F (Aug 20, 6:50 AM)33% (Aug 11, 4:50 PM)29.59 "Hg (Aug 18, 1:50 PM)
Average64 °F69%29.85 "Hg
* Reported Aug 6 11:20 AM — Aug 21 11:20 AM, Helmstedt, Weather by CustomWeather, © 2014

Note: Actual official high and low records may vary slightly from our data, if they occured in-between our weather recording intervals... More about our weather records

Advertising

Helmstedt weather history for previous 24 hours

 ConditionsComfort  
Time TempWeatherWind HumidityBarometerVisibility
11:20 AM
Aug 21
59 °FScattered clouds.9 mph72%30.01 "HgN/A
10:50 AM57 °FScattered clouds.8 mph77%30.01 "HgN/A
10:20 AM57 °FScattered clouds.8 mph77%30.01 "HgN/A
9:50 AM55 °FScattered clouds.9 mph82%30.01 "HgN/A
9:20 AM55 °FPassing clouds.9 mph82%30.01 "HgN/A
8:50 AM54 °FPassing clouds.8 mph88%30.01 "HgN/A
8:20 AM54 °FPassing clouds.8 mph88%30.01 "HgN/A
7:50 AM52 °FScattered clouds.6 mph94%30.01 "HgN/A
7:20 AM52 °FSunny.6 mph94%30.01 "Hg10 mi
6:50 AM52 °FClear.6 mph94%29.98 "Hg10 mi
4:50 AM50 °FClear.3 mph100%29.98 "Hg10 mi
9:50 PM
Aug 20
52 °FClear.5 mph82%29.98 "Hg10 mi
9:20 PM52 °FSunny.6 mph82%29.98 "Hg10 mi
8:50 PM54 °FSunny.8 mph77%29.98 "Hg10 mi
8:20 PM55 °FSunny.6 mph72%29.98 "Hg10 mi
7:50 PM57 °FPassing clouds.5 mph67%29.98 "HgN/A
7:20 PM57 °FPassing clouds.5 mph63%29.98 "HgN/A
6:50 PM57 °FPassing clouds.7 mph63%29.98 "HgN/A
6:20 PM61 °FScattered clouds.15 mph55%29.98 "HgN/A
5:50 PM63 °FPassing clouds.10 mph56%29.98 "HgN/A
5:20 PM63 °FSunny.7 mph56%29.98 "Hg10 mi
4:50 PM59 °FScattered showers. Scattered clouds.10 mph63%29.98 "HgN/A
4:20 PM63 °FScattered showers. Scattered clouds.13 mph52%29.95 "HgN/A
3:50 PM63 °FScattered clouds.14 mph56%29.95 "HgN/A
3:20 PM61 °FScattered clouds.8 mph55%29.95 "HgN/A
2:50 PM61 °FSprinkles. Scattered clouds.13 mph55%29.95 "HgN/A
2:20 PM64 °FScattered clouds.14 mph52%29.95 "HgN/A
1:50 PM63 °FScattered clouds.13 mph56%29.95 "HgN/A
1:20 PM61 °FScattered clouds.13 mph59%29.95 "HgN/A
12:50 PM61 °FScattered clouds.16 mph59%29.95 "HgN/A
12:20 PM61 °FScattered clouds.15 mph63%29.95 "HgN/A
Weather by CustomWeather, © 2014

See weather overviewHow to use our weather pages